Overview Statistics Trail Chart Weather Telemetry Raw packets
 

This is the latest recevied weather packets stored in our database for station/object N7WSS. If no packets are shown the sender has not sent any weather packets the latest 10 day(s).

<< 24 25 26 27 28 29 30 >>
Time Temp. Humidity Pressure Rain* Wind** Luminosity Snow
1788465243 31.67° C 47% 1013.5 hPa 0 mm - - -
1788464942 31.11° C 48% 1013.6 hPa 0 mm - - -
1788464638 31.11° C 48% 1013.7 hPa 0 mm - - -
1788464333 30.56° C 50% 1013.9 hPa 0 mm - - -
1788464030 30.56° C 50% 1014.1 hPa 0 mm - - -
1788463724 30.56° C 50% 1014.1 hPa 0 mm - - -
1788463420 31.11° C 48% 1014 hPa 0 mm - - -
1788463117 30.56° C 49% 1014.2 hPa 0 mm - - -
1788462812 31.11° C 48% 1014.1 hPa 0 mm - - -
1788462511 30.56° C 50% 1014.3 hPa 0 mm - - -
1788462206 30.56° C 51% 1014.1 hPa 0 mm - - -
1788461906 30° C 50% 1014.3 hPa 0 mm - - -
1788461601 30.56° C 50% 1014.4 hPa 0 mm - - -
1788461297 30° C 51% 1014.7 hPa 0 mm - - -
1788460994 30.56° C 50% 1014.8 hPa 0 mm - - -
1788460688 30.56° C 51% 1014.7 hPa 0 mm - - -
1788460382 30.56° C 50% 1014.7 hPa 0 mm - - -
1788460081 30.56° C 49% 1015 hPa 0 mm - - -
1788459776 30.56° C 50% 1014.9 hPa 0 mm - - -
1788459475 30° C 51% 1015 hPa 0 mm - - -
1788459170 30.56° C 51% 1015 hPa 0 mm - - -
1788458866 30° C 51% 1015.1 hPa 0 mm - - -
1788458565 30° C 51% 1015.2 hPa 0 mm - - -
1788458264 30.56° C 50% 1015.3 hPa 0 mm - - -
1788457964 30.56° C 50% 1015.2 hPa 0 mm - - -

* Rain latest hour (hover to see other rain measurements)
** Current wind speed in m/s (hover to see current wind gust speed)